This demonstration page uses our WeatherBlox Daily Observations layout. Learn more.

40.92945, -100.16068

Hourly Observations for August 13, 2018

Temp ( °F °C ) Dew Point ( °F °C ) Humidity (%) Winds ( mph kmh ) Pressure ( in mb ) Visibility ( mi km ) Precip ( " mm )
12:15 am 00:15 Clear 67 19.5 62 16.7 84 84 Calm 29.97 1015 10 16.0934 0 0
12:35 am 00:35 Clear 66 19.1 62 16.7 86 86 E 3 6 29.97 1015 10 16.0934 0 0
12:55 am 00:55 Clear 65 18.4 62 16.5 89 89 ESE 5 7 30 1016 7 11.26538 0 0
1:15 am 01:15 Clear 65 18.2 61 16 87 87 Calm 30 1016 10 16.0934 0 0
1:35 am 01:35 Clear 65 18.4 62 16.5 89 89 Calm 29.97 1015 7 11.26538 0 0
1:55 am 01:55 Clear 66 18.7 62 16.4 87 87 SE 3 6 29.97 1015 10 16.0934 0 0
2:15 am 02:15 Clear 66 19 61 16.1 83 83 SE 3 6 29.97 1015 10 16.0934 0 0
2:35 am 02:35 Clear 66 19 61 16.1 83 83 SSE 5 7 29.97 1015 10 16.0934 0 0
2:55 am 02:55 Clear 66 19 61 16 83 83 SSE 3 6 29.97 1015 10 16.0934 0 0
3:15 am 03:15 Clear 66 18.8 60 15.7 82 82 SSE 3 6 29.97 1015 10 16.0934 0 0
3:35 am 03:35 Clear 66 19 60 15.7 81 81 SSE 3 6 29.97 1015 10 16.0934 0 0
3:55 am 03:55 Clear 66 18.8 61 16 84 84 Calm 29.97 1015 10 16.0934 0 0
4:15 am 04:15 Clear 65 18.6 61 16 85 85 ESE 3 6 29.97 1015 10 16.0934 0 0
4:35 am 04:35 Clear 64 17.5 60 15.8 90 90 ESE 3 6 29.97 1015 10 16.0934 0 0
4:55 am 04:55 Clear 64 17.6 60 15.7 89 89 ESE 3 6 29.97 1015 10 16.0934 0 0
5:15 am 05:15 Clear 63 17.3 61 15.9 92 92 E 5 7 29.97 1015 10 16.0934 0 0
5:35 am 05:35 Clear 63 17 60 15.7 92 92 ENE 6 9 29.97 1015 7 11.26538 0 0
5:55 am 05:55 Clear 63 17.2 61 16.1 93 93 NE 5 7 29.97 1015 7 11.26538 0 0
6:15 am 06:15 Clear 63 17.2 61 16.1 93 93 ENE 3 6 29.97 1015 7 11.26538 0 0
6:35 am 06:35 Clear with Mist and Fog 63 17 61 15.9 93 93 ENE 3 6 29.97 1015 5 8.0467 0 0
6:55 am 06:55 Sunny with Mist and Fog 62 16.8 60 15.8 94 94 E 3 6 29.97 1015 5 8.0467 0 0
7:15 am 07:15 Sunny with Mist and Fog 63 17.2 61 16.2 94 94 ESE 5 7 29.97 1015 5 8.0467 0 0
7:35 am 07:35 Sunny with Mist and Fog 64 18 62 16.7 92 92 E 3 6 29.97 1015 5 8.0467 0 0
7:55 am 07:55 Sunny 66 18.7 63 17.2 91 91 ESE 3 6 29.97 1015 7 11.26538 0 0
8:15 am 08:15 Sunny 67 19.3 63 17.2 88 88 Calm 29.97 1015 7 11.26538 0 0
8:35 am 08:35 Sunny 68 20.2 64 17.6 85 85 ESE 5 7 29.94 1014 7 11.26538 0 0
8:55 am 08:55 Sunny 70 21 65 18.2 84 84 SE 5 7 29.94 1014 10 16.0934 0 0
9:15 am 09:15 Sunny 72 22.2 66 18.8 81 81 SSE 6 9 29.94 1014 10 16.0934 0 0
9:35 am 09:35 Sunny 73 22.8 66 18.8 78 78 SSE 7 11 29.94 1014 10 16.0934 0 0
9:55 am 09:55 Sunny 75 24.1 67 19.5 76 76 SSE 6 9 29.91 1013 10 16.0934 0 0
10:15 am 10:15 Sunny 77 25 67 19.6 72 72 SSE 6 9 29.91 1013 10 16.0934 0 0
10:35 am 10:35 Sunny 80 26.5 67 19.4 65 65 S 9 15 29.91 1013 10 16.0934 0 0
10:55 am 10:55 Sunny 81 27.1 66 18.8 61 61 SSW 9 15 29.91 1013 10 16.0934 0 0
11:15 am 11:15 Sunny 80 26.8 65 18.3 60 60 S 14 22 29.91 1013 10 16.0934 0 0
11:35 am 11:35 Sunny 81 27.3 66 19 61 61 SSW 8 13 29.88 1012 10 16.0934 0 0
11:55 am 11:55 Sunny 82 27.9 66 18.8 58 58 S 12 19 29.88 1012 10 16.0934 0 0
12:15 pm 12:15 Partly Cloudy 82 27.9 66 18.8 58 58 SSE 14 22 29.88 1012 10 16.0934 0 0
12:35 pm 12:35 Partly Cloudy 83 28.1 66 19.1 58 58 SSE 14 22 29.88 1012 10 16.0934 0 0
12:55 pm 12:55 Partly Cloudy 82 27.7 66 18.9 59 59 S 13 20 29.88 1012 10 16.0934 0 0
1:15 pm 13:15 Partly Cloudy 82 28 67 19.3 59 59 S 12 19 29.88 1012 10 16.0934 0 0
1:35 pm 13:35 Mostly Cloudy 81 27 67 19.5 64 64 SSE 12 19 29.91 1013 10 16.0934 0 0
1:55 pm 13:55 Partly Cloudy 82 27.9 67 19.4 60 60 SSE 12 19 29.88 1012 10 16.0934 0 0
2:15 pm 14:15 Sunny 82 27.9 66 19.1 59 59 SSE 12 19 29.88 1012 10 16.0934 0 0
2:35 pm 14:35 Partly Cloudy 82 27.7 67 19.3 60 60 S 12 19 29.88 1012 10 16.0934 0 0
2:55 pm 14:55 Partly Cloudy 82 27.7 67 19.4 61 61 SSE 12 19 29.88 1012 10 16.0934 0 0
3:15 pm 15:15 Sunny 81 27.2 67 19.3 62 62 SSE 13 20 29.85 1011 10 16.0934 0 0
3:35 pm 15:35 Sunny 80 26.6 67 19.2 64 64 SSE 14 22 29.88 1012 10 16.0934 0 0
3:55 pm 15:55 Sunny 80 26.5 66 18.9 63 63 SSE 12 19 29.88 1012 10 16.0934 0 0
4:15 pm 16:15 Sunny 79 26.2 66 19.1 65 65 SSE 9 15 29.88 1012 10 16.0934 0 0
4:35 pm 16:35 Sunny 79 26.1 67 19.5 67 67 SSE 10 17 29.88 1012 10 16.0934 0 0
4:55 pm 16:55 Partly Cloudy 79 26.1 67 19.5 67 67 SSE 9 15 29.88 1012 10 16.0934 0 0
5:15 pm 17:15 Sunny 80 26.6 67 19.6 66 66 SE 12 19 29.88 1012 10 16.0934 0 0
5:35 pm 17:35 Partly Cloudy 80 26.9 67 19.6 64 64 SSE 12 19 29.88 1012 10 16.0934 0 0
5:55 pm 17:55 Mostly Cloudy with Nearby Thunderstorms 80 26.5 67 19.5 65 65 SE 10 17 29.88 1012 10 16.0934 0 0
6:15 pm 18:15 Mostly Cloudy 77 24.9 67 19.2 71 71 ESE 9 15 29.88 1012 10 16.0934 0 0
6:35 pm 18:35 Partly Cloudy 75 24 67 19.7 77 77 SE 8 13 29.88 1012 10 16.0934 0 0
6:55 pm 18:55 Mostly Cloudy with Light Rain 74 23.5 69 20.5 83 83 S 6 9 29.88 1012 10 16.0934 0 0
7:15 pm 19:15 Partly Cloudy with Light Rain 73 23 68 20 83 83 S 7 11 29.91 1013 10 16.0934 0 0
7:35 pm 19:35 Mostly Cloudy with Light Rain 73 22.7 69 20.3 86 86 S 5 7 29.91 1013 10 16.0934 0 0
7:55 pm 19:55 Partly Cloudy 73 22.6 68 20.2 86 86 SSE 5 7 29.91 1013 10 16.0934 0 0
8:15 pm 20:15 Partly Cloudy 73 22.7 68 19.9 84 84 SE 5 7 29.91 1013 10 16.0934 0 0
8:35 pm 20:35 Mostly Cloudy 73 22.8 68 19.9 84 84 SE 6 9 29.91 1013 10 16.0934 0 0
8:55 pm 20:55 Cloudy with Light Rain 73 22.8 68 20.1 85 85 SE 6 9 29.91 1013 10 16.0934 0 0
9:15 pm 21:15 Cloudy 73 22.7 69 20.3 86 86 ESE 5 7 29.91 1013 10 16.0934 0 0
9:35 pm 21:35 Cloudy 73 22.7 69 20.5 87 87 SE 7 11 29.94 1014 10 16.0934 0 0
9:55 pm 21:55 Mostly Cloudy 72 22.2 68 19.9 87 87 SSE 5 7 29.94 1014 10 16.0934 0 0
10:15 pm 22:15 Partly Cloudy 71 21.7 67 19.5 87 87 SSE 6 9 29.94 1014 10 16.0934 0 0
10:35 pm 22:35 Clear 70 21.2 66 19.1 88 88 S 3 6 29.91 1013 10 16.0934 0 0
10:55 pm 22:55 Clear 70 21.2 67 19.3 89 89 Calm 29.91 1013 10 16.0934 0 0
11:15 pm 23:15 Clear 69 20.5 67 19.2 92 92 Calm 29.94 1014 10 16.0934 0 0
11:35 pm 23:35 Clear 68 20 65 18.6 92 92 ENE 3 6 29.97 1015 10 16.0934 0 0
11:55 pm 23:55 Clear with Mist and Fog 68 20 66 19 94 94 Calm 29.97 1015 2.5 4.02335 0 0

Powered by AerisWeather